Location: *
(47.6569°N, 7.4256°E)
Time: 11:45:33
(UTC+00:00)

Cosmos 2360 Rocket - Pass Details

Date: 14 December 2019
Orbit: 833 x 846 km, 71.0° (Epoch: 26 January)

Event Time Altitude Azimuth Distance (km) Brightness Sun altitude
Rises 16:06:58 0° 249° (WSW) 3,394 7.7 -4.9°
Reaches altitude 10° 16:09:56 10° 264° (W) 2,465 5.9 -5.3°
Maximum altitude 16:14:22 23° 316° (NW) 1,728 4.0 -6.0°
Drops below altitude 10° 16:18:50 10° 8° (N) 2,478 4.3 -6.6°
Sets 16:21:49 0° 23° (NNE) 3,418 4.9 -7.1°
Enters shadow 16:21:52 - 23° (NNE) 3,433 4.9 -7.1°
